Diretta Meteo Urum-Qi-Diwopu, Cinamartedì 21 maggio ore 12:30

Mappa
Sereno 32 °C Sereno 24 Ore: T.min 18 T.max 32
Ponente Nord/Nord-Est Km/h 18 Punto di rugiada: -2 °C Umidità: 11% Visibilità: 10 Km
Il sole sorge alle: 04:36 Il sole tramonta alle: 19:36
21 Maggio 2019 12:30 tempo osservato: Sereno Sereno 32 11 1008 vento: Nord N/NE 18
21 Maggio 2019 12:00 tempo osservato: Sereno Sereno 31 13 1009 vento: Nord NE 18
21 Maggio 2019 11:30 tempo osservato: Sereno Sereno 30 12 1009 vento: Nord N/NE 18
21 Maggio 2019 11:00 tempo osservato: Sereno Sereno 30 13 1010 vento: Nord NE 14.4
21 Maggio 2019 10:30 tempo osservato: Sereno Sereno 29 13 1010 vento: Nord NE 10.8
21 Maggio 2019 10:00 tempo osservato: Sereno Sereno 29 13 1011 vento: Nord E 10.8
21 Maggio 2019 09:30 tempo osservato: Sereno Sereno 28 12 1011 vento: Nord N 7.2
21 Maggio 2019 09:00 tempo osservato: Sereno Sereno 27 12 1012 vento: Nord E 10.8
21 Maggio 2019 08:30 tempo osservato: Sereno Sereno 27 13 1012 vento: Nord N 7.2
21 Maggio 2019 08:00 tempo osservato: Sereno Sereno 25 19 1013 vento: Nord N 7.2
21 Maggio 2019 07:30 tempo osservato: Sereno Sereno 24 20 1013 vento: Nord S/SE 10.8
21 Maggio 2019 07:00 tempo osservato: Sereno Sereno 22 23 1013 vento: Nord S/SE 14.4
21 Maggio 2019 06:30 tempo osservato: Sereno Sereno 21 24 1013 vento: Nord S/SE 14.4
21 Maggio 2019 06:00 tempo osservato: Sereno Sereno 20 24 1013 vento: Nord S/SE 14.4
21 Maggio 2019 05:30 tempo osservato: Sereno Sereno 19 25 1013 vento: Nord S/SE 14.4
21 Maggio 2019 05:00 tempo osservato: Sereno Sereno 19 25 1013 vento: Nord S/SE 14.4
21 Maggio 2019 04:30 tempo osservato: Sereno Sereno 18 27 1013 vento: Nord S/SE 14.4
21 Maggio 2019 04:00 tempo osservato: Sereno Sereno 19 25 1013 vento: Nord S/SE 10.8
21 Maggio 2019 03:30 tempo osservato: Sereno Sereno 19 27 1013 vento: Nord S 21.6
21 Maggio 2019 03:00 tempo osservato: Sereno Sereno 20 24 1013 vento: Nord S 14.4
21 Maggio 2019 02:30 tempo osservato: Sereno Sereno 20 24 1013 vento: Nord S/SE 18
21 Maggio 2019 02:00 tempo osservato: Sereno Sereno 20 26 1013 vento: Nord S/SE 18
21 Maggio 2019 01:30 tempo osservato: Sereno Sereno 19 29 1013 vento: Nord S/SE 18
21 Maggio 2019 01:00 tempo osservato: Sereno Sereno 19 29 1013 vento: Nord S/SE 18
21 Maggio 2019 00:30 tempo osservato: Sereno Sereno 19 27 1014 vento: Nord S/SE 14.4
21 Maggio 2019 00:00 tempo osservato: Sereno Sereno 19 27 1014 vento: Nord S/SE 14.4
20 Maggio 2019 23:30 tempo osservato: Sereno Sereno 20 24 1014 vento: Nord N 14.4
20 Maggio 2019 23:00 tempo osservato: Sereno Sereno 20 24 1014 vento: Nord S/SE 14.4
20 Maggio 2019 22:30 tempo osservato: Sereno Sereno 20 26 1014 vento: Nord S/SE 10.8
20 Maggio 2019 22:00 tempo osservato: Sereno Sereno 20 26 1014 vento: Nord S/SE 10.8
20 Maggio 2019 21:30 tempo osservato: Sereno Sereno 21 24 1014 vento: Nord S/SE 10.8
20 Maggio 2019 21:00 tempo osservato: Sereno Sereno 22 23 1014 vento: Nord N 7.2
20 Maggio 2019 20:30 tempo osservato: Sereno Sereno 23 18 1014 vento: Nord N 3.6
20 Maggio 2019 20:00 tempo osservato: Sereno Sereno 24 16 1014 vento: Nord N 3.6
20 Maggio 2019 19:30 tempo osservato: Sereno Sereno 24 17 1014 vento: Nord N 3.6
20 Maggio 2019 19:00 tempo osservato: Sereno Sereno 26 12 1014 vento: Nord N 7.2
20 Maggio 2019 18:30 tempo osservato: Sereno Sereno 26 13 1014 vento: Nord N 7.2
20 Maggio 2019 18:00 tempo osservato: Sereno Sereno 27 11 1014 vento: Nord N 7.2
20 Maggio 2019 17:30 tempo osservato: Sereno Sereno 27 11 1014 vento: Nord N 7.2
20 Maggio 2019 17:00 tempo osservato: Sereno Sereno 27 11 1014 vento: Nord N/NO 10.8
20 Maggio 2019 16:30 tempo osservato: Sereno Sereno 28 12 1014 vento: Nord N 3.6
20 Maggio 2019 16:00 tempo osservato: Sereno Sereno 27 12 1014 vento: Nord N 7.2
20 Maggio 2019 15:30 tempo osservato: Sereno Sereno 27 12 1014 vento: Nord N 7.2
20 Maggio 2019 15:00 tempo osservato: Sereno Sereno 27 11 1014 vento: Nord O/NO 10.8
20 Maggio 2019 14:30 tempo osservato: Sereno Sereno 26 13 1015 vento: Nord N 10.8
20 Maggio 2019 14:00 tempo osservato: Sereno Sereno 27 12 1015 vento: Nord N 7.2